Waarnemingen

Advertentie
Mijn weer
P11-B, Nederland (6203): temperatuur & dauwpunt: 19.02.2018 20:00:00 - 25.02.2018 20:00:00 (CET)P11-B, Nederland (6203): windsnelheid & windstoten: 19.02.2018 20:00:00 - 25.02.2018 20:00:00 (CET)P11-B, Nederland (6203): windrichting: 19.02.2018 20:00:00 - 25.02.2018 20:00:00 (CET)P11-B, Nederland (6203): luchtdruk: 19.02.2018 20:00:00 - 25.02.2018 20:00:00 (CET)P11-B, Nederland (6203): zicht: 19.02.2018 20:00:00 - 25.02.2018 20:00:00 (CET)
Datum & Tijd tt [°C] td [°C] ff [km/u] ff [kn] fx [km/u] fx [kn] dd ppp [hPa] vv [km]
25.02.2018 20:00:00 0,5 -7,6 43 23 58 31 NO 1030,7 44
25.02.2018 19:00:00 0,6 -7,3 52 28 54 29 NO 1030,6 10
25.02.2018 18:00:00 0,6 -7,4 50 27 50 27 NO 1030,5 10
25.02.2018 17:00:00 0,6 -8,3 44 24 47 25 NO 1030,5 10
25.02.2018 16:00:00 0,6 -8,3 41 22 43 23 NO 1030,6 10
25.02.2018 15:00:00 0,6 -8,6 37 20 40 21 ONO 1030,6 10
25.02.2018 14:00:00 0,2 -8,8 34 18 43 23 ONO 1031,1 10
25.02.2018 13:00:00 -0,4 -9,4 37 20 43 23 ONO 1031,2 10
25.02.2018 12:00:00 -0,7 -9,8 36 19 50 27 ONO 1031,1 36
25.02.2018 11:00:00 -0,7 -8,0 44 24 47 25 ONO 1031,3 10
25.02.2018 10:00:00 -0,7 -7,7 46 25 47 25 ONO 1030,9 10
25.02.2018 09:00:00 -1,0 -7,4 44 24 47 25 ONO 1030,5 10
25.02.2018 08:00:00 -1,1 -7,2 46 25 47 25 ONO 1030,2 10
25.02.2018 07:00:00 -0,9 -7,2 46 25 50 27 ONO 1029,6 10
25.02.2018 06:00:00 -0,6 -7,4 50 27 50 27 ONO 1029,2 10
25.02.2018 05:00:00 -0,3 -7,2 50 27 54 29 ONO 1028,8 10
25.02.2018 04:00:00 0,1 -7,0 40 21 50 27 ONO 1028,7 31
25.02.2018 03:00:00 0,3 -7,2 54 29 54 29 ONO 1028,5 10
25.02.2018 02:00:00 0,5 -7,1 52 28 58 31 O 1028,4 10
25.02.2018 01:00:00 0,9 -7,2 55 30 61 33 ONO 1028,2 10
25.02.2018 00:00:00 1,4 -5,9 59 32 61 33 O 1028,2 10
24.02.2018 23:00:00 1,9 -5,0 63 34 65 35 ONO 1027,7 10
24.02.2018 22:00:00 2,2 -4,6 61 33 65 35 ONO 1027,4 10
24.02.2018 21:00:00 2,2 -5,0 65 35 68 37 ONO 1026,9 10
24.02.2018 20:00:00 2,5 -3,9 67 36 68 37 ONO 1026,4 10
24.02.2018 19:00:00 2,9 -2,6 68 37 65 35 ONO 1025,9 10
24.02.2018 18:00:00 2,9 -2,4 54 29 61 33 NO 1025,6 18
24.02.2018 17:00:00 2,8 -2,4 57 31 61 33 ONO 1025,5 10
24.02.2018 16:00:00 2,6 -2,2 59 32 58 31 ONO 1025,0 10
24.02.2018 15:00:00 2,9 -2,8 59 32 58 31 ONO 1025,3 10
24.02.2018 14:00:00 2,7 -5,1 52 28 54 29 ONO 1025,4 10
24.02.2018 13:00:00 2,6 -4,8 52 28 50 27 ONO 1025,3 10
24.02.2018 12:00:00 2,0 -5,5 50 27 54 29 ONO 1025,7 10
24.02.2018 11:00:00 1,7 -5,7 50 27 50 27 ONO 1025,5 10
24.02.2018 10:00:00 1,5 -5,0 54 29 54 29 O 1025,3 10
24.02.2018 09:00:00 1,3 -6,3 52 28 58 31 O 1024,9 10
24.02.2018 08:00:00 1,2 -6,7 59 32 58 31 O 1023,9 10
24.02.2018 07:00:00 0,6 -6,6 55 30 58 31 O 1023,2 10
24.02.2018 06:00:00 0,5 -6,6 52 28 50 27 O 1023,3 10
24.02.2018 05:00:00 0,6 -6,3 52 28 50 27 O 1022,8 10
24.02.2018 04:00:00 0,7 -5,7 52 28 54 29 O 1022,5 10
24.02.2018 03:00:00 0,6 -6,4 50 27 54 29 ONO 1022,6 10
24.02.2018 02:00:00 1,1 -5,3 50 27 50 27 O 1022,7 10
24.02.2018 01:00:00 1,2 -5,0 50 27 50 27 O 1022,5 10
24.02.2018 00:00:00 1,5 -4,7 50 27 54 29 O 1022,4 10
23.02.2018 23:00:00 1,6 -4,8 54 29 58 31 O 1022,3 10
23.02.2018 22:00:00 2,3 -4,3 50 27 54 29 ONO 1022,2 10
23.02.2018 21:00:00 2,6 -3,2 50 27 54 29 ONO 1022,1 10
23.02.2018 20:00:00 2,6 -3,2 43 23 54 29 ONO 1022,1 20
23.02.2018 19:00:00 2,6 -3,1 52 28 54 29 ONO 1021,7 10
23.02.2018 18:00:00 2,7 -3,3 50 27 54 29 ONO 1021,7 10
23.02.2018 17:00:00 2,6 -3,3 46 25 50 27 ONO 1021,9 10
23.02.2018 16:00:00 2,4 -3,3 40 21 50 27 ONO 1022,0 18
23.02.2018 15:00:00 2,2 -3,4 46 25 47 25 ONO 1022,5 10
23.02.2018 14:00:00 2,2 -4,5 36 19 47 25 ONO 1023,2 17
23.02.2018 13:00:00 2,1 -4,8 44 24 47 25 ONO 1023,6 10
23.02.2018 12:00:00 1,6 -2,7 37 20 40 21 ONO 1024,2 10
23.02.2018 11:00:00 2,1 -3,6 37 20 40 21 NO 1024,3 10
23.02.2018 10:00:00 2,2 -2,6 37 20 36 19 ONO 1024,3 10
23.02.2018 09:00:00 2,3 -2,2 29 16 36 19 ONO 1024,2 11
23.02.2018 08:00:00 2,2 -2,9 31 17 32 18 ONO 1024,2 10
23.02.2018 07:00:00 2,3 -2,8 29 16 36 19 ONO 1024,0 10
23.02.2018 06:00:00 2,4 -2,9 34 18 36 19 ONO 1023,9 10
23.02.2018 05:00:00 2,6 -3,1 35 19 36 19 ONO 1023,8 10
23.02.2018 04:00:00 2,4 -2,2 34 18 32 18 ONO 1023,8 10
23.02.2018 03:00:00 2,5 -2,3 31 17 32 18 ONO 1024,3 10
23.02.2018 02:00:00 2,8 -1,9 31 17 36 19 O 1024,5 10
23.02.2018 01:00:00 3,1 -1,6 29 16 32 18 ONO 1024,8 10
23.02.2018 00:00:00 3,3 -1,9 34 18 40 21 ONO 1024,9 10
22.02.2018 23:00:00 3,4 -1,5 42 23 43 23 ONO 1024,8 10
22.02.2018 22:00:00 3,3 -0,6 44 24 47 25 ONO 1024,8 10
22.02.2018 21:00:00 3,5 -1,2 46 25 47 25 ONO 1024,5 10
22.02.2018 20:00:00 3,6 -1,2 40 21 50 27 NO 1024,6 13
22.02.2018 19:00:00 3,8 -1,6 42 23 43 23 NO 1024,5 10
22.02.2018 18:00:00 3,8 -2,0 39 21 40 21 NO 1024,5 10
22.02.2018 17:00:00 4,1 -2,6 35 19 36 19 NO 1024,7 10
22.02.2018 16:00:00 4,0 -3,3 29 16 36 19 NO 1024,9 20
22.02.2018 15:00:00 3,8 -3,1 31 17 36 19 NO 1025,2 10
22.02.2018 14:00:00 3,6 -3,3 34 18 36 19 NO 1025,9 10
22.02.2018 13:00:00 3,6 -3,9 34 18 36 19 ONO 1026,2 10
22.02.2018 12:00:00 3,0 -4,3 34 18 36 19 O 1026,5 10
22.02.2018 11:00:00 2,8 -4,5 35 19 40 21 O 1026,3 10
22.02.2018 10:00:00 3,0 -3,4 39 21 43 23 ONO 1026,2 10
22.02.2018 09:00:00 2,8 -3,7 42 23 43 23 ONO 1026,1 10
22.02.2018 08:00:00 2,7 -4,1 42 23 43 23 ONO 1025,8 10
22.02.2018 07:00:00 2,5 -4,4 41 22 43 23 ONO 1025,5 10
22.02.2018 06:00:00 2,5 -4,1 39 21 40 21 ONO 1025,5 10
22.02.2018 05:00:00 2,4 -5,1 35 19 40 21 ONO 1025,4 10
22.02.2018 04:00:00 2,4 -4,5 29 16 36 19 ONO 1025,6 12
22.02.2018 03:00:00 2,7 -3,7 34 18 36 19 ONO 1025,9 10
22.02.2018 02:00:00 2,7 -3,6 35 19 36 19 ONO 1025,9 10
22.02.2018 01:00:00 2,8 -3,4 34 18 36 19 ONO 1026,3 10
22.02.2018 00:00:00 3,1 -2,8 34 18 36 19 ONO 1026,3 10
21.02.2018 23:00:00 3,3 -3,1 31 17 36 19 NO 1026,6 10
21.02.2018 22:00:00 3,5 -2,4 35 19 40 21 NO 1026,6 10
21.02.2018 21:00:00 3,6 -1,5 35 19 40 21 NO 1026,4 10
21.02.2018 20:00:00 3,6 -1,6 34 18 36 19 NO 1026,2 10
21.02.2018 19:00:00 3,6 -0,8 34 18 36 19 NO 1026,1 10
21.02.2018 18:00:00 3,8 -0,6 31 17 32 18 NO 1025,9 9
21.02.2018 17:00:00 4,2 -0,3 24 13 25 14 NO 1025,8 7
21.02.2018 16:00:00 4,0 -1,0 18 10 22 12 NNO 1026,1 8
21.02.2018 15:00:00 4,2 -1,7 11 6 14 8 NNO 1026,5 9
21.02.2018 14:00:00 4,2 -1,6 13 7 14 8 NO 1027,1 9
21.02.2018 13:00:00 4,3 -1,8 15 8 18 10 NO 1027,4 10
21.02.2018 12:00:00 4,2 -1,6 11 6 18 10 NO 1027,6 10
21.02.2018 11:00:00 4,6 -0,9 21 11 25 14 NO 1027,7 8
21.02.2018 10:00:00 4,7 -0,4 24 13 29 16 NO 1027,3 8
21.02.2018 09:00:00 4,7 -0,3 26 14 29 16 NO 1026,9 9
21.02.2018 08:00:00 4,3 -0,6 28 15 29 16 NO 1026,6 9
21.02.2018 07:00:00 4,3 -0,7 26 14 29 16 NO 1026,6 8
21.02.2018 06:00:00 4,1 -1,6 24 13 25 14 NNO 1026,6 9
21.02.2018 05:00:00 4,2 -0,7 22 12 25 14 NNO 1026,6 8
21.02.2018 04:00:00 4,4 -0,4 22 12 22 12 NO 1026,6 8
21.02.2018 03:00:00 4,7 0,4 22 12 25 14 NO 1026,1 7
21.02.2018 02:00:00 5,0 0,3 26 14 29 16 NO 1025,8 7
21.02.2018 01:00:00 4,9 0,2 29 16 29 16 NO 1025,3 7
21.02.2018 00:00:00 4,7 -0,6 34 18 32 18 NO 1025,1 8
20.02.2018 23:00:00 4,9 0,0 35 19 36 19 NO 1024,8 8
20.02.2018 22:00:00 4,8 -0,1 39 21 40 21 NO 1023,9 9
20.02.2018 21:00:00 4,8 -0,3 35 19 36 19 NO 1023,6 10
20.02.2018 20:00:00 4,8 0,3 35 19 36 19 NO 1022,8 7
20.02.2018 19:00:00 4,8 -0,2 28 15 29 16 NO 1021,6 7
20.02.2018 18:00:00 4,6 -0,3 21 11 22 12 NO 1020,9 10
20.02.2018 17:00:00 3,4 -0,8 18 10 22 12 ONO 1020,2 10
20.02.2018 16:00:00 3,4 -0,8 14 8 29 16 ONO 1020,1 8
20.02.2018 15:00:00 3,6 -1,7 13 7 25 14 O 1019,9 8
20.02.2018 14:00:00 3,9 -0,5 13 7 14 8 O 1019,6 6
20.02.2018 13:00:00 4,3 -0,1 11 6 18 10 OZO 1019,7 8
20.02.2018 12:00:00 4,4 -0,5 15 8 22 12 ZO 1019,5 9
20.02.2018 11:00:00 4,3 -0,3 16 9 22 12 ZO 1019,1 8
20.02.2018 10:00:00 4,1 0,4 14 8 18 10 OZO 1019,2 9
20.02.2018 09:00:00 4,1 0,6 18 10 25 14 OZO 1019,0 8
20.02.2018 08:00:00 4,4 0,9 18 10 18 10 O 1018,9 8
20.02.2018 07:00:00 4,5 1,3 16 9 22 12 O 1018,6 9
20.02.2018 06:00:00 4,5 2,5 18 10 22 12 O 1018,1 7
20.02.2018 05:00:00 4,5 3,0 16 9 18 10 O 1018,2 4,9
20.02.2018 04:00:00 4,5 3,5 16 9 18 10 O 1018,0 3,6
20.02.2018 03:00:00 4,4 3,5 16 9 18 10 O 1017,8 2,9
20.02.2018 02:00:00 4,4 3,4 21 11 22 12 O 1017,9 3,5
20.02.2018 01:00:00 4,5 3,4 15 8 18 10 OZO 1017,8 4,2
20.02.2018 00:00:00 4,3 3,3 16 9 22 12 OZO 1017,7 4,6
19.02.2018 23:00:00 4,1 3,4 18 10 22 12 ZZO 1017,3 2,9
19.02.2018 22:00:00 4,3 3,4 21 11 22 12 OZO 1017,2 3,0
19.02.2018 21:00:00 4,5 3,9 16 9 18 10 ZO 1017,3 2,5
19.02.2018 20:00:00 4,7 4,0 16 9 22 12 ZO 1017,2 3,6

tt = temperatuur
td = dauwpunt
ff = windsnelheid
fx = windstoten
dd = windrichting
ppp = luchtdruk
vv = zicht

Weerstations in de omgeving